Weather History for Albion, NE

Change the Weather History Date:

Saturday, June 22, 2013

  Actual Average (KOFK) Record (KOFK)
Temperature  
Mean Temperature 72 °F 72 °F  
Max Temperature 82 °F 84 °F 103 °F (1930)
Min Temperature 63 °F 61 °F 43 °F (1902)
Degree Days  
Heating Degree Days 0 0  
Month to date heating degree days 28  
Since 1 June heating degree days 28  
Since 1 July heating degree days 6641  
Cooling Degree Days 8 8  
Month to date cooling degree days 117  
Year to date cooling degree days 178  
Since 1 June cooling degree days 117  
Growing Degree Days 22 (Base 50)    
Moisture  
Dew Point 64 °F    
Average Humidity 74    
Maximum Humidity 96    
Minimum Humidity 47    
Precipitation  
Precipitation 0.80 in 0.14 in 2.07 in (1969)
Month to date precipitation 3.14  
Year to date precipitation 12.84  
Snow  
Snow 0.00 in 0.00 in - ()
Month to date snowfall 0.0  
Since 1 July snowfall 30.5  
Snow Depth -    
Sea Level Pressure  
Sea Level Pressure 29.85 in    
Wind  
Wind Speed 13 mph (ESE)    
Max Wind Speed 23 mph    
Max Gust Speed 39 mph    
Visibility 10 miles    
Events Rain , Thunderstorm    
T = Trace of Precipitation, MM = Missing Value Source: NWS Daily Summary

Daily Weather History Graph

Daily Weather History Graph

Search for Another Location

Airport:

Trip Planner

Search our weather history database for the weather conditions in past years. The results will help you decide how hot, cold, wet, or windy it might be!

Date:

Astronomy

Jun. 22, 2013 Rise Set
Actual Time 5:58 AM CDT 9:10 PM CDT
Civil Twilight 5:23 AM CDT 9:44 PM CDT
Nautical Twilight 4:39 AM CDT 10:28 PM CDT
Astronomical Twilight 3:46 AM CDT 11:21 PM CDT
Moon 8:25 PM CDT (6/22) 5:12 AM CDT (6/22)
Length of Visible Light 16h 21m
Length of Day
15h 12m
Waxing Gibbous, 99% of the Moon is Illuminated
Jun 22
Waxing Gibbous
Jun 23
Full
Jun 29
Last Quarter
Jul 8
New
Jul 15
First Quarter

Hourly Weather History & Observations

Time (CDT) Temp. Heat Index Dew Point Humidity Pressure Visibility Wind Dir Wind Speed Gust Speed Precip Events Conditions
12:15 AM 75.7 °F - 54.1 °F 47% 29.89 in 10.0 mi NW 21.9 mph 39.1 mph N/A   Overcast
12:35 AM 71.1 °F - 56.5 °F 60% 29.91 in 10.0 mi WNW 19.6 mph 29.9 mph N/A Rain , Thunderstorm Light Thunderstorms and Rain
12:55 AM 68.2 °F - 58.5 °F 71% 29.92 in 10.0 mi NW 16.1 mph 26.5 mph 0.03 in Rain , Thunderstorm Thunderstorms and Rain
1:15 AM 67.1 °F - 59.4 °F 76% 29.89 in 10.0 mi NNW 11.5 mph 19.6 mph N/A Rain , Thunderstorm Light Thunderstorms and Rain
1:35 AM 68.5 °F - 59.0 °F 72% 29.89 in 10.0 mi North 16.1 mph 23.0 mph N/A Rain Light Rain
1:55 AM 69.1 °F - 58.6 °F 69% 29.86 in 10.0 mi NNE 12.7 mph 19.6 mph N/A Rain , Thunderstorm Light Thunderstorms and Rain
2:15 AM 68.9 °F - 59.7 °F 72% 29.89 in 10.0 mi West 4.6 mph - N/A Rain , Thunderstorm Light Thunderstorms and Rain
2:35 AM 67.1 °F - 61.0 °F 81% 29.89 in 5.0 mi ESE 6.9 mph - 0.07 in Rain , Thunderstorm Heavy Thunderstorms and Rain
2:55 AM 66.2 °F - 61.0 °F 83% 29.86 in 10.0 mi NNE 6.9 mph - 0.12 in Rain , Thunderstorm Light Thunderstorms and Rain
3:15 AM 66.7 °F - 61.2 °F 82% 29.92 in 10.0 mi WNW 16.1 mph 33.4 mph N/A Thunderstorm Overcast
3:35 AM 65.1 °F - 60.4 °F 85% 29.93 in 3.0 mi NW 12.7 mph 26.5 mph 0.17 in Rain , Thunderstorm Heavy Thunderstorms and Rain
3:55 AM 63.9 °F - 60.3 °F 88% 29.92 in 1.5 mi East 10.4 mph - 0.53 in Rain , Thunderstorm Heavy Thunderstorms and Rain
4:15 AM 64.2 °F - 60.1 °F 86% 29.90 in 5.0 mi ENE 13.8 mph - 0.06 in Rain , Thunderstorm Thunderstorms and Rain
4:35 AM 64.9 °F - 59.4 °F 82% 29.91 in 10.0 mi East 11.5 mph - 0.08 in Rain , Thunderstorm Light Thunderstorms and Rain
4:55 AM 65.7 °F - 59.9 °F 82% 29.96 in 10.0 mi NE 4.6 mph - 0.09 in Rain , Thunderstorm Rain
5:15 AM 64.2 °F - 60.8 °F 89% 29.97 in 10.0 mi Calm Calm - 0.02 in Rain , Thunderstorm Light Thunderstorms and Rain
5:35 AM 63.7 °F - 61.7 °F 93% 29.99 in 10.0 mi NNW 3.5 mph - 0.02 in Rain , Thunderstorm Light Thunderstorms and Rain
5:55 AM 63.7 °F - 62.2 °F 95% 30.00 in 10.0 mi Calm Calm - 0.02 in Rain Light Rain
6:15 AM 63.7 °F - 62.2 °F 95% 30.00 in 10.0 mi NE 4.6 mph - 0.01 in Rain Light Rain
6:35 AM 63.9 °F - 62.6 °F 96% 29.98 in 10.0 mi SE 4.6 mph - 0.01 in Rain Light Rain
6:55 AM 63.7 °F - 62.1 °F 94% 29.89 in 10.0 mi ESE 23.0 mph 27.6 mph 0.01 in Rain , Thunderstorm Thunderstorms and Rain
7:15 AM 63.7 °F - 62.6 °F 96% 29.92 in 10.0 mi SE 13.8 mph 27.6 mph N/A Rain Light Rain
7:35 AM 63.9 °F - 62.6 °F 96% 29.93 in 10.0 mi East 4.6 mph - N/A   Scattered Clouds
7:55 AM 64.0 °F - 63.0 °F 96% 29.92 in 10.0 mi SE 10.4 mph - N/A   Mostly Cloudy
8:15 AM 64.4 °F - 63.3 °F 96% 29.92 in 10.0 mi SE 12.7 mph - N/A   Mostly Cloudy
8:35 AM 64.4 °F - 63.1 °F 96% 29.88 in 10.0 mi SE 11.5 mph 20.7 mph N/A   Scattered Clouds
8:55 AM 64.6 °F - 63.5 °F 96% 29.89 in 10.0 mi SE 16.1 mph 23.0 mph N/A   Clear
9:35 AM 65.3 °F - 63.1 °F 93% 29.87 in 10.0 mi SE 23.0 mph 27.6 mph N/A   Scattered Clouds
9:55 AM 65.8 °F - 63.0 °F 90% 29.86 in 10.0 mi SE 23.0 mph 29.9 mph N/A   Clear
10:15 AM 67.8 °F - 62.6 °F 83% 29.88 in 10.0 mi SE 21.9 mph 31.1 mph N/A   Clear
10:35 AM 69.8 °F - 62.1 °F 76% 29.88 in 10.0 mi SSE 21.9 mph 31.1 mph N/A   Clear
10:55 AM 70.0 °F - 62.2 °F 76% 29.87 in 10.0 mi SSE 21.9 mph 27.6 mph N/A   Clear
11:15 AM 70.9 °F - 62.8 °F 75% 29.87 in 10.0 mi SSE 19.6 mph 27.6 mph N/A Thunderstorm Clear
11:35 AM 71.6 °F - 63.0 °F 74% 29.88 in 10.0 mi SSE 13.8 mph 25.3 mph N/A   Clear
11:55 AM 73.2 °F - 63.9 °F 72% 29.89 in 10.0 mi SSE 9.2 mph 20.7 mph N/A   Clear
12:15 PM 74.5 °F - 64.0 °F 70% 29.90 in 10.0 mi SE 8.1 mph - N/A   Clear
12:35 PM 76.1 °F - 65.1 °F 69% 29.91 in 10.0 mi SE 10.4 mph - N/A   Clear
12:55 PM 77.0 °F - 65.5 °F 67% 29.90 in 10.0 mi SE 12.7 mph 17.3 mph N/A   Clear
1:15 PM 78.3 °F - 66.6 °F 67% 29.90 in 10.0 mi SE 17.3 mph - N/A   Clear
1:35 PM 79.0 °F - 66.2 °F 65% 29.89 in 10.0 mi SE 13.8 mph 21.9 mph N/A   Clear
1:55 PM 79.7 °F - 66.0 °F 63% 29.88 in 10.0 mi SE 12.7 mph 18.4 mph N/A   Clear
2:15 PM 80.1 °F 82.2 °F 66.4 °F 63% 29.86 in 10.0 mi SE 11.5 mph - N/A   Clear
2:35 PM 81.0 °F 83.3 °F 66.7 °F 62% 29.86 in 10.0 mi SE 10.4 mph - N/A   Clear
2:55 PM 81.5 °F 83.6 °F 66.0 °F 59% 29.86 in 10.0 mi SSE 10.4 mph - N/A   Scattered Clouds
3:15 PM 80.6 °F 82.5 °F 65.5 °F 60% 29.86 in 10.0 mi SE 10.4 mph - N/A   Mostly Cloudy
3:35 PM 81.9 °F 84.1 °F 66.4 °F 59% 29.85 in 10.0 mi SE 6.9 mph - N/A   Mostly Cloudy
3:55 PM 80.6 °F 82.5 °F 65.7 °F 60% 29.84 in 10.0 mi SSE 6.9 mph - N/A   Mostly Cloudy
4:15 PM 80.6 °F 82.8 °F 66.4 °F 62% 29.83 in 10.0 mi ESE 6.9 mph - N/A   Overcast
4:35 PM 81.0 °F 83.2 °F 66.6 °F 61% 29.82 in 10.0 mi ESE 8.1 mph - N/A   Overcast
4:55 PM 81.5 °F 83.6 °F 66.0 °F 59% 29.81 in 10.0 mi ESE 4.6 mph - N/A   Mostly Cloudy
5:15 PM 81.3 °F 83.5 °F 66.2 °F 60% 29.80 in 10.0 mi ESE 9.2 mph - N/A   Mostly Cloudy
5:35 PM 82.4 °F 84.8 °F 66.7 °F 59% 29.80 in 10.0 mi ESE 8.1 mph - N/A   Mostly Cloudy
5:55 PM 81.7 °F 84.5 °F 68.0 °F 63% 29.79 in 10.0 mi ESE 8.1 mph - N/A   Scattered Clouds
6:15 PM 81.1 °F 84.0 °F 68.5 °F 65% 29.77 in 10.0 mi ESE 9.2 mph 16.1 mph N/A   Mostly Cloudy
6:35 PM 81.0 °F 83.8 °F 68.4 °F 65% 29.76 in 10.0 mi East 8.1 mph 16.1 mph N/A   Overcast
6:55 PM 81.7 °F 84.9 °F 68.9 °F 65% 29.76 in 10.0 mi East 8.1 mph - N/A   Overcast
7:15 PM 81.7 °F 85.2 °F 69.6 °F 67% 29.75 in 10.0 mi East 9.2 mph - N/A   Overcast
7:35 PM 80.6 °F 83.9 °F 70.2 °F 70% 29.74 in 10.0 mi East 9.2 mph - N/A   Scattered Clouds
7:55 PM 79.9 °F - 70.5 °F 73% 29.73 in 10.0 mi East 10.4 mph - N/A   Scattered Clouds
8:15 PM 79.7 °F - 70.5 °F 73% 29.72 in 10.0 mi East 13.8 mph - N/A   Scattered Clouds
8:35 PM 79.3 °F - 70.7 °F 75% 29.72 in 10.0 mi East 12.7 mph 18.4 mph N/A   Mostly Cloudy
8:55 PM 78.3 °F - 71.2 °F 79% 29.73 in 10.0 mi East 10.4 mph - N/A   Mostly Cloudy
9:15 PM 79.9 °F - 68.7 °F 69% 29.73 in 10.0 mi ESE 13.8 mph 17.3 mph N/A   Mostly Cloudy
9:35 PM 79.2 °F - 68.2 °F 69% 29.74 in 10.0 mi SE 11.5 mph - N/A   Mostly Cloudy
9:55 PM 79.5 °F - 68.0 °F 68% 29.75 in 10.0 mi SE 16.1 mph - N/A   Overcast
10:15 PM 79.3 °F - 68.0 °F 68% 29.75 in 10.0 mi SE 15.0 mph 20.7 mph N/A   Overcast
10:35 PM 79.0 °F - 67.1 °F 67% 29.76 in 10.0 mi SSE 16.1 mph 21.9 mph N/A   Overcast
10:55 PM 78.4 °F - 66.7 °F 67% 29.74 in 7.0 mi SSE 16.1 mph 20.7 mph N/A   Mostly Cloudy
11:15 PM 78.1 °F - 66.0 °F 66% 29.73 in 10.0 mi SSE 13.8 mph 19.6 mph N/A   Scattered Clouds
11:35 PM 77.9 °F - 65.3 °F 65% 29.71 in 10.0 mi SSE 15.0 mph 20.7 mph N/A   Scattered Clouds
11:55 PM 77.7 °F - 64.9 °F 65% 29.70 in 10.0 mi SSE 17.3 mph 23.0 mph N/A   Clear